Location: Alma
(34.4195°N, 97.6123°W)
Time: 12:42:12
(UTC+00:00)

Hubble Space Telescope - Visible Passes

Search period start: 23 May 2024 00:00
Search period end: 02 June 2024 00:00
Orbit: 511 x 515 km, 28.5° (Epoch: 22 May)

Date Brightness Start Highest point End Pass type
(mag) Time Alt. Az. Time Alt. Az. Time Alt. Az.
25 May 2.6 02:41:10 10° SSW 02:42:47 14° SSE 02:42:47 14° SSE visible
26 May 2.4 02:22:02 10° SSW 02:24:29 16° SSE 02:25:51 14° SE visible
27 May 2.3 02:02:58 10° SSW 02:05:40 17° SSE 02:08:22 10° ESE visible
27 May 2.7 03:42:15 10° WSW 03:43:33 18° SW 03:43:33 18° SW visible
28 May 1.7 03:23:24 10° WSW 03:26:11 30° SSW 03:26:11 30° SSW visible
29 May 1.4 03:04:33 10° WSW 03:08:11 34° S 03:08:40 32° SSE visible
30 May 1.4 02:45:42 10° WSW 02:49:20 34° S 02:51:01 24° SE visible
31 May 1.5 02:26:51 10° WSW 02:30:29 34° S 02:33:13 15° ESE visible
31 May 3.1 04:07:24 10° WSW 04:08:03 13° WSW 04:08:03 13° WSW visible
01 Jun 1.5 02:07:59 10° WSW 02:11:38 34° S 02:15:16 10° ESE visible
01 Jun 2.7 03:48:38 10° WSW 03:50:12 18° SW 03:50:12 18° SW visible
